#timestamp,LO_Frequency,Hit,StdDev 
1536375615.6,286047001.5,N
1536375635.5,286047000.6,N
1536375655.3,286047000.8,N
1536375675.2,286047000.3,N
1536375695.9,286047002.8,N
1536375715.7,286047001.8,N
1536375735.6,286047003.8,N
1536375755.4,286047001.7,N
1536375775.2,286047003.3,N
1536375795.1,286047005.5,N
1536375796.0,286047005.5,N
1536375815.8,286047003.6,N
1536375835.7,286047005.4,N
1536375855.5,286047004.9,N
1536375875.3,286047003.2,N
1536375895.2,286047001.7,N
1536375915.0,286047003.1,N
1536375915.9,286047003.1,N
1536375935.7,286047005.4,N
1536375955.6,286047004.5,N
1536375975.4,286047004.5,N
1536375995.3,286047008.9,Y
1536376015.1,286047004.5,P
1536376035.8,286047007.6,P
1536376055.7,286047007.0,P
1536376075.5,286047006.4,N
1536376095.4,286047007.6,Y
1536376115.2,286047001.1,P
1536376135.0,286046999.2,N
1536376135.9,286046999.2,N
1536376155.8,286046998.7,N
1536376175.6,286047001.2,N
1536376195.4,286046996.8,N
1536376215.3,286046998.0,N
1536376235.1,286046998.0,N
1536376255.9,286046997.8,N
1536376275.7,286046998.9,N
1536376295.5,286046999.6,N
1536376315.4,286046997.2,N
1536376335.2,286046997.0,N
1536376355.0,286046998.0,N
1536376355.9,286046998.0,N
1536376375.8,286046997.0,N
1536376395.6,286046998.9,N
1536376415.5,286046996.9,N
1536376435.3,286046999.6,N
1536376455.1,286046999.2,N
1536376475.9,286046996.6,N
1536376495.7,286046996.8,N
1536376515.5,286046995.1,N
1536376535.4,286046995.4,N
1536376555.2,286046997.9,N
1536376575.1,286046995.7,N
1536376576.0,286046995.7,N
1536376595.8,286046995.9,N
1536376615.6,286046993.8,N
1536376635.5,286046995.2,N
1536376655.3,286046992.1,Y
1536376675.1,286046995.2,P
1536376695.9,286046997.7,N
1536376715.7,286046999.0,N
1536376735.6,286047001.1,N
1536376755.4,286046999.9,N
1536376775.2,286047000.3,N
1536376795.1,286047002.4,N
1536376796.0,286047002.4,N
1536376815.8,286047001.7,N
1536376835.6,286047004.4,N
1536376855.5,286047002.6,N
1536376875.3,286047002.5,N
1536376895.2,286047002.6,N
1536376915.9,286047002.0,N
1536376935.7,286047003.8,N
1536376955.6,286047003.6,N
1536376975.4,286047003.5,N
1536376995.2,286047005.7,N
1536377015.1,286047005.6,N
1536377016.0,286047005.6,N
1536377035.8,286047005.7,N
1536377055.7,286047005.3,N
1536377075.5,286047005.7,N
1536377095.3,286047005.2,N
1536377115.2,286047005.0,N
1536377135.0,286047005.3,N
1536377135.9,286047005.3,N
1536377155.7,286047004.8,N
1536377175.6,286047004.9,N
1536377195.4,286047005.1,N
1536377215.3,286047004.5,N
1536377235.1,286047005.2,N
1536377236.0,286047005.2,N
1536377255.8,286047006.8,Y
1536377275.7,286047004.3,P
1536377295.5,286047003.2,P
1536377315.4,286047003.3,P
1536377335.2,286047006.0,Y
1536377355.0,286046999.8,P
1536377355.9,286046999.8,N
1536377375.8,286047000.6,N
1536377395.6,286047001.2,N
1536377415.4,286046999.6,N
1536377435.3,286046999.0,N
1536377455.1,286046999.0,N
1536377475.9,286046999.9,N
1536377495.7,286047000.7,N
1536377515.5,286046998.3,N
1536377535.4,286047001.2,N
1536377555.2,286047001.2,N
1536377575.0,286047000.8,N
1536377575.9,286047000.8,N
1536377595.8,286046999.7,N
1536377615.6,286047000.3,N
1536377635.5,286046998.1,N
1536377655.3,286047001.2,N
1536377675.1,286047001.0,N
1536377695.9,286047000.4,N
1536377715.7,286047000.9,N
1536377735.5,286046998.8,N
1536377755.4,286047000.9,N
1536377775.2,286047001.2,N
1536377795.1,286046996.9,N
1536377796.0,286046996.9,N
1536377815.8,286046999.2,N
1536377835.6,286046999.6,N
1536377885.5,286046997.8,E
1536377895.4,286046997.5,N
1536377915.2,286046999.0,P
1536377935.1,286046998.6,N
1536377936.0,286046998.6,N
1536377955.8,286046998.5,N
1536377975.6,286047000.7,N
1536377995.5,286046998.4,N
1536378015.3,286046998.2,N
1536378035.2,286047001.2,N
1536378055.9,286047002.4,N
1536378075.7,286047000.3,N
1536378095.6,286046998.2,N
1536378115.4,286046999.2,N
1536378135.2,286046996.8,N
1536378155.1,286046996.8,N
1536378156.0,286046996.8,N
1536378175.8,286046997.9,N
1536378195.7,286046996.8,N
1536378215.5,286046997.6,N
1536378235.3,286046996.5,N
1536378255.2,286046998.1,N
1536378275.0,286046998.3,N
1536378275.9,286046998.3,N
1536378295.8,286046999.2,N
1536378315.6,286046998.4,N
1536378335.4,286046998.1,N
1536378355.3,286046999.5,N
1536378375.1,286046998.9,N
1536378395.8,286047000.9,N
1536378415.7,286046997.0,N
1536378435.5,286046997.8,N
1536378455.3,286046997.8,N
1536378475.2,286046996.1,N
1536378495.0,286046995.3,Y
1536378495.9,286046995.3,P
1536378515.8,286046997.4,N
1536378535.6,286046998.8,N
1536378555.4,286046999.0,N
1536378575.3,286047000.5,N
1536378595.1,286047002.6,N
1536378615.9,286047000.6,N
1536378635.7,286047001.9,N
1536378655.5,286047000.0,N
1536378675.4,286047001.2,N
1536378695.2,286047000.6,N
1536378715.0,286047000.2,N
1536378715.9,286047000.2,N
1536378735.8,286047000.2,N
1536378755.6,286047001.0,N
1536378775.4,286046998.4,N
1536378795.3,286046998.8,N
1536378815.1,286046999.3,N
1536378835.9,286046998.7,N
1536378855.7,286046999.4,N
1536378875.5,286046998.3,N
1536378895.4,286046998.8,N
1536378915.2,286046999.2,N
1536378965.1,286046998.9,E
1536378975.9,286046998.9,N
1536378995.7,286047001.1,P
1536379015.6,286046998.5,N
1536379035.4,286046999.1,N
1536379055.2,286046998.6,N
1536379075.1,286046998.5,N
1536379076.0,286046998.5,N
1536379095.8,286046998.4,N
1536379115.7,286046999.0,N
1536379135.5,286046998.5,N
1536379155.3,286046999.0,N
1536379175.2,286046998.4,N
1536379195.0,286046998.7,N
1536379195.9,286046998.7,N
